Regional Weather Roundup
Issued by NWS

Home | Current Version | Previous Version | Text Only | Print | Product List | Glossary On
Versions: 1 2 3 4 5 6 7 8 9 10 11 12 13 14 15 16 17 18 19 20 21 22 23 24 25 26 27 28 29 30 31 32 33 34 35 36 37 38 39 40 41 42 43 44 45 46 47 48 49 50
000
ASUS46 KSTO 242215
RWRCA

NORTHERN AND CENTRAL CA REGIONAL WEATHER ROUNDUP
NATIONAL WEATHER SERVICE SACRAMENTO CA
200 PM PST TUE JAN 24 2017

NOTE: FAIR INDICATES FEW OR NO CLOUDS BELOW 12,000 FEET WITH NO
SIGNIFICANT WEATHER AND/OR OBSTRUCTIONS TO VISIBILITY.

CAZ001-003-242300-
NORTHWEST AREA

CITY           SKY/WX    TMP DP  RH WIND       PRES   REMARKS
CRESCENT CITY  SUNNY     50  37  61 CALM      30.14S
UKIAH          SUNNY     50  37  61 VRB3      30.09S
$$

CAZ006-505>513-242300-
BAY AREA

CITY           SKY/WX    TMP DP  RH WIND       PRES   REMARKS
SANTA ROSA     MOSUNNY   55  39  54 NW6       30.07F
SAN RAFAEL     N/A       51  MM  MM MISG
NAPA           MOSUNNY   57  38  48 N3        30.08S
CONCORD        MOSUNNY   54  39  57 NE7       30.09S
OAKLAND CITY   N/A      MM  MM  MM MISG
OAKLAND        MOSUNNY   56  41  57 NE5       30.09S
SAN FRAN CITY  N/A       52  MM  62 MISG
SAN FRAN ARPT  MOSUNNY   52  41  66 N5        30.08F
LIVERMORE      MOSUNNY   50  39  66 VRB6      30.07F
HAYWARD        MOSUNNY   55  36  48 E5        30.08R
REDWOOD CITY   N/A       52  MM  66 MISG
MOFFETT ARPT   SUNNY     52  41  66 NW7       30.08F
SAN JOSE ARPT  MOSUNNY   55  42  61 W6        30.06F
$$
CAZ034-037-514>518-242300-
CENTRAL COAST

CITY           SKY/WX    TMP DP  RH WIND       PRES   REMARKS
WATSONVILLE    SUNNY     55  39  54 NE6       30.05S
SALINAS        SUNNY     54  41  61 CALM      30.04S
MONTEREY       SUNNY     54  38  54 N9        30.05R
SAN LUIS OBISP CLOUDY    56  42  59 CALM      30.01S
SANTA MARIA    CLOUDY    53  39  59 NW5       30.01S
$$
CAZ015-016-242300-
NORTHERN SACRAMENTO VALLEY

CITY           SKY/WX    TMP DP  RH WIND       PRES   REMARKS
REDDING        SUNNY     53  35  50 NW8       30.07F
RED BLUFF      SUNNY     54  34  46 NW9       30.08F
OROVILLE       SUNNY     54  38  54 NW6       30.08F
$$
CAZ016>018-242300-
SOUTHERN SACRAMENTO VALLEY

CITY           SKY/WX    TMP DP  RH WIND       PRES   REMARKS
AUBURN         SUNNY     48  37  66 NW9       30.05S
BEALE AFB      SUNNY     53  40  61 NW14      30.06F
LINCOLN        FAIR      52  37  58 NW10G17   30.07S
MARYSVILLE     SUNNY     53  39  59 NW14      30.09S
SAC INTL ARPT  MOSUNNY   52  43  71 NW12      30.08F
MATHER AIRPORT NOT AVBL
DOWNTOWN SAC   N/A       53  MM  MM MISG
SAC EXEC ARPT  SUNNY     53  43  68 NW10      30.08F
VACAVILLE      SUNNY     55  41  59 N8        30.09F
TRAVIS AFB     MOSUNNY   53  42  66 NE10      30.07F
$$
CAZ019>021-242300-
SAN JOAQUIN VALLEY

CITY           SKY/WX    TMP DP  RH WIND       PRES   REMARKS
STOCKTON       PTSUNNY   53  42  66 NW8       30.07S
MODESTO        PTSUNNY   52  40  63 W9        30.07S
MERCED         PTSUNNY   52  41  66 W8        30.06F
LEMOORE        PTSUNNY   51  41  68 NW7       30.06S
FRESNO         PTSUNNY   53  35  50 NW6       30.06S
HANFORD        PTSUNNY   53  39  59 N5        30.06S
PORTERVILLE    SUNNY     53  39  59 NW6       30.04F
BAKERSFIELD    MOSUNNY   55  35  47 VRB3      30.02S
$$
CAZ011-012-071-242300-
NORTHERN MOUNTAINS

CITY           SKY/WX    TMP DP  RH WIND       PRES   REMARKS
YREKA          SUNNY     41  27  57 CALM      30.08F
MOUNT SHASTA   SUNNY     38  28  67 VRB7      30.03S WCI  33
ALTURAS        SUNNY     30  22  72 CALM      30.00S
$$
CAZ011-012-071-242300-
SIERRA NEVADA MTNS

CITY           SKY/WX    TMP DP  RH WIND       PRES   REMARKS
TRUCKEE        MOSUNNY   27  14  59 CALM      29.94
TAHOE VLY ARPT SUNNY     30  15  53 NE5       29.91R WCI  25
MAMMOTH LAKES  SNOW      10   5  80 CALM      29.89R VSB 1/4
$$



USA.gov is the U.S. government's official web portal to all federal, state and local government web resources and services.